Wind_Speed
24 25 25 25 26 26 26 26 27 27 28 29 30 30 30 29 29 30 30 30 29 29 28 28 27 27 26 25 25 25 24 23 23 23 22 21 20 20 20 19 20 20 20
26 27 27 27 28 29 29 29 29 30 30 31 32 33 33 33 32 32 33 32 32 32 31 30 29 29 28 28 27 27 26 26 25 25 24 23 23 22 22 21 21 21 20
28 28 29 29 30 31 31 32 32 33 33 34 35 36 36 36 36 36 35 35 35 35 34 33 32 32 31 30 30 29 29 28 28 27 27 26 25 24 24 24 23 23 22
30 30 30 31 32 33 33 34 35 36 36 37 38 39 39 40 39 39 38 38 38 38 37 37 36 35 34 33 33 32 31 31 30 30 29 29 28 27 26 26 25 25 24
32 33 33 33 34 35 36 37 38 39 39 40 41 42 42 43 43 42 42 41 41 41 40 40 39 39 38 37 36 36 35 34 33 33 32 31 31 30 29 28 28 27 27
35 35 35 36 37 38 38 39 40 41 42 43 44 45 45 46 46 46 45 45 44 44 43 43 42 41 41 40 39 39 38 37 37 36 35 34 34 34 33 32 31 31 30
37 37 37 38 39 40 41 42 43 44 45 46 47 47 47 48 48 48 48 48 47 47 47 46 45 44 44 43 43 42 41 40 40 39 39 38 38 37 36 35 35 34 33
38 39 40 40 42 43 43 44 45 46 47 47 48 50 50 49 49 50 51 51 51 51 49 48 48 47 46 46 45 45 44 43 42 42 42 41 41 40 40 39 38 38 37
40 41 42 43 44 45 45 46 46 47 48 49 50 51 52 52 53 53 53 54 53 53 52 51 50 49 48 48 48 47 47 46 46 45 45 44 43 44 43 42 42 42 41
42 43 44 45 46 47 47 47 48 49 50 50 51 52 54 55 56 56 56 56 56 56 55 54 53 52 51 50 50 49 49 48 48 47 47 46 46 45 45 45 44 44 44
43 44 45 46 46 47 47 48 48 49 50 51 52 53 54 56 57 59 59 58 58 58 57 57 56 56 54 53 52 52 51 51 50 50 49 48 47 48 47 47 47 46 46
44 44 45 45 46 46 46 47 48 50 51 51 52 53 55 56 58 60 60 60 59 58 58 58 57 57 56 55 54 53 52 53 52 51 50 48 48 48 50 49 49 47 46
44 45 45 45 45 45 46 47 48 49 49 50 51 53 54 55 57 59 60 59 59 58 57 57 56 55 55 55 55 54 54 55 53 52 51 51 50 49 49 49 48 47 47
44 44 44 44 44 45 45 46 46 47 47 48 50 51 53 54 56 56 57 57 57 56 55 53 54 55 54 53 54 54 54 53 53 52 52 53 52 52 51 50 48 48 48
43 43 43 43 43 44 44 44 44 44 46 48 49 51 52 52 52 53 53 53 54 53 52 52 51 51 52 51 52 52 53 52 53 53 53 51 51 51 50 49 49 49 49
41 42 41 42 42 42 41 41 42 44 45 46 47 47 47 48 48 49 49 49 49 49 48 46 47 49 49 50 51 51 51 51 51 50 51 52 52 51 50 51 51 51 52
40 40 40 40 39 38 38 39 41 42 43 43 44 43 43 43 42 43 43 43 43 44 44 43 43 44 46 47 48 48 48 50 49 50 50 51 51 50 51 52 52 52 53
38 38 37 36 36 36 37 38 38 39 39 40 41 40 40 40 39 39 38 37 37 37 37 38 38 40 41 43 44 43 44 45 47 49 50 50 51 51 52 52 52 52 53
36 35 35 34 35 35 35 36 36 36 38 38 38 38 38 37 36 36 35 34 33 33 33 33 34 37 39 39 40 41 41 42 44 46 48 49 50 51 51 52 52 53 54
33 33 33 33 33 33 33 34 34 35 35 35 35 35 35 34 33 33 32 31 30 29 28 28 29 31 33 34 36 38 40 42 43 45 46 47 48 49 51 53 54 55 56
31 31 31 32 32 32 32 33 33 33 33 33 33 33 32 32 31 30 30 28 28 27 26 26 27 28 29 32 34 36 38 41 42 44 45 47 49 50 52 53 54 55 56
29 30 30 30 30 30 31 31 31 31 31 31 31 31 30 29 29 29 29 28 27 26 26 26 26 27 28 30 31 34 36 39 41 44 46 48 49 51 52 53 54 55 56
28 28 28 29 29 29 30 30 30 30 30 30 29 29 29 29 28 28 28 28 27 27 26 27 27 28 29 31 33 35 38 40 42 44 46 48 49 51 52 54 55 56 56
26 26 27 27 28 28 29 29 29 29 29 29 29 29 29 29 29 29 29 28 28 28 28 29 30 31 32 34 36 38 40 43 45 46 47 49 51 52 53 54 54 54 53
25 26 27 27 28 28 28 29 29 29 29 29 29 30 30 30 30 30 29 29 29 30 31 31 33 34 36 37 39 41 43 45 46 47 49 50 51 51 52 52 52 51 49
25 25 26 27 27 27 28 28 29 29 29 30 30 31 31 31 31 31 31 32 32 33 34 35 36 37 39 40 42 44 45 46 48 48 49 49 49 49 48 48 48 47 46
Wind_Direction
289 290 290 290 289 289 289 289 289 289 288 288 288 288 288 287 287 286 285 285 284 283 283 282 282 281 280 280 280 280 279 280 280 280 280 280 280 280 279 278 277 276 276
286 287 288 288 288 289 289 289 288 288 288 287 287 287 287 286 286 285 284 283 282 281 281 280 279 278 278 277 277 277 276 276 276 277 277 277 277 277 277 277 276 275 274
284 285 286 287 288 289 289 289 289 289 288 288 287 286 286 285 284 283 283 282 281 280 279 278 277 276 275 275 274 274 274 274 273 274 274 274 275 275 275 276 275 274 274
283 283 284 285 286 287 288 289 289 289 289 288 288 287 286 285 284 282 281 280 280 279 278 277 276 275 273 273 273 272 272 272 272 272 272 273 273 272 273 273 274 273 273
282 283 284 285 286 287 288 288 289 289 289 288 287 287 286 285 284 283 282 280 279 278 277 276 275 274 273 272 271 271 271 271 271 270 270 271 271 271 271 271 271 271 271
282 283 284 286 287 287 288 289 289 289 289 288 287 287 287 286 285 284 283 281 279 277 276 275 274 273 272 271 271 270 270 270 270 269 269 270 269 270 270 270 271 270 271
282 283 284 286 287 287 288 289 289 289 289 288 288 287 286 286 286 285 283 281 280 278 277 276 274 273 272 271 270 270 270 270 270 269 269 269 269 269 269 269 270 270 270
281 283 284 285 286 287 288 289 289 289 289 289 288 287 287 287 287 285 284 283 281 280 278 276 275 274 272 271 270 270 270 270 270 270 269 269 269 269 268 269 269 270 271
281 282 283 285 286 287 288 288 288 289 289 289 289 288 288 288 286 285 284 283 281 280 279 276 274 273 272 271 270 270 270 270 270 269 270 268 268 269 268 268 269 269 270
279 281 283 285 286 287 288 289 289 289 289 290 290 289 289 289 288 286 284 283 282 280 278 275 273 271 270 270 269 269 269 270 271 271 271 269 269 269 268 268 268 269 269
278 280 282 284 285 287 288 289 289 289 290 290 290 290 290 290 289 288 286 284 282 280 278 275 272 270 268 268 267 268 268 269 269 270 270 270 269 269 268 268 267 269 269
279 280 281 283 284 286 287 288 289 290 290 291 291 291 291 291 291 288 286 284 282 279 276 274 272 269 267 267 266 266 266 267 267 269 269 269 270 270 270 270 268 268 267
279 281 282 283 284 285 286 288 289 290 291 291 292 293 293 292 291 289 287 285 283 280 277 274 271 269 266 265 264 263 264 265 266 267 268 269 270 271 272 272 270 267 268
279 281 282 283 285 286 288 289 290 291 292 293 293 294 294 294 293 291 288 286 283 280 277 274 270 268 266 264 263 262 262 263 265 267 268 270 271 273 277 273 272 270 270
279 280 282 283 285 287 288 289 291 292 293 294 295 295 296 297 296 294 291 287 284 281 277 273 271 267 267 264 263 263 264 264 266 266 267 270 273 276 275 273 272 272 273
278 280 281 283 285 286 288 290 292 294 295 296 297 298 299 300 298 298 294 290 286 283 280 276 271 268 269 266 265 266 266 267 267 268 269 271 274 275 273 273 274 274 275
278 279 281 283 286 287 289 291 294 296 297 298 299 300 302 304 303 302 300 294 290 286 283 280 274 272 270 268 268 267 267 267 268 269 271 273 274 274 275 276 276 275 276
278 280 281 284 286 289 291 294 297 299 300 301 303 303 304 305 306 307 305 300 296 293 289 283 278 275 275 274 272 271 271 271 270 271 274 275 276 276 277 278 278 277 277
278 280 282 285 288 290 292 295 299 301 303 305 305 306 306 307 307 309 309 306 301 298 293 288 284 280 278 275 274 272 275 275 274 274 276 276 277 277 278 279 279 279 278
279 282 284 286 289 291 293 298 300 303 306 307 307 308 309 309 309 308 309 309 307 304 300 295 291 287 282 279 278 276 276 276 278 279 279 279 279 280 280 280 280 280 280
281 283 285 287 290 292 295 298 300 303 306 308 309 311 311 311 310 311 311 311 310 308 304 300 296 292 288 284 283 281 280 280 281 282 282 282 282 282 283 282 282 282 282
282 284 286 288 291 294 296 298 300 304 307 309 310 311 312 313 314 313 313 312 310 309 306 302 299 296 294 291 288 287 286 286 285 284 285 285 285 285 285 285 284 284 283
283 285 286 289 292 295 297 299 301 304 306 308 310 311 312 313 314 314 314 312 310 308 306 305 302 299 296 294 292 291 290 289 288 288 288 288 288 288 287 286 286 285 285
283 285 288 290 293 296 298 300 302 304 306 308 309 311 312 312 313 313 312 311 309 307 305 303 302 300 298 296 295 293 292 292 291 291 291 291 290 290 289 288 287 286 286
284 287 289 291 294 296 298 301 302 304 306 309 309 310 311 310 311 311 311 310 308 307 305 304 303 302 300 298 297 296 295 295 294 293 293 293 292 292 291 290 288 287 287
286 288 290 292 294 296 299 301 304 305 307 308 309 310 310 311 311 311 310 309 308 307 306 305 304 303 302 300 299 298 297 296 296 295 295 294 294 294 293 291 290 289 288
Height
5862 5861 5860 5859 5858 5857 5856 5854 5853 5852 5850 5848 5846 5845 5844 5842 5840 5838 5836 5834 5833 5831 5829 5828 5826 5825 5823 5822 5820 5819 5818 5817 5815 5814 5813 5812 5811 5810 5809 5808 5808 5807 5807
5857 5856 5855 5854 5853 5851 5850 5849 5848 5846 5845 5843 5841 5839 5837 5836 5834 5832 5830 5828 5826 5824 5823 5821 5819 5818 5817 5815 5814 5813 5811 5810 5809 5809 5808 5807 5806 5805 5804 5803 5803 5802 5802
5852 5851 5850 5849 5847 5846 5844 5843 5841 5840 5838 5836 5834 5832 5830 5829 5827 5825 5823 5821 5819 5817 5815 5814 5812 5811 5809 5808 5807 5806 5805 5804 5803 5802 5801 5800 5800 5799 5798 5798 5797 5797 5796
5846 5846 5845 5843 5842 5840 5838 5836 5834 5832 5831 5829 5827 5825 5823 5821 5819 5817 5815 5813 5811 5809 5808 5806 5804 5803 5801 5800 5799 5798 5797 5796 5795 5795 5794 5793 5793 5792 5792 5791 5791 5790 5790
5840 5839 5838 5837 5835 5833 5831 5829 5827 5825 5823 5821 5818 5816 5814 5812 5810 5809 5807 5804 5802 5800 5799 5797 5796 5794 5793 5792 5791 5790 5789 5788 5787 5786 5786 5785 5785 5784 5784 5784 5783 5783 5783
5833 5831 5830 5829 5827 5825 5823 5821 5819 5817 5814 5812 5809 5807 5805 5802 5800 5799 5797 5794 5792 5790 5789 5787 5786 5785 5784 5782 5781 5780 5780 5779 5778 5778 5777 5777 5776 5776 5776 5776 5775 5775 5775
5825 5823 5822 5821 5819 5817 5814 5812 5810 5807 5804 5801 5798 5796 5794 5792 5790 5788 5785 5783 5782 5779 5778 5777 5775 5774 5773 5772 5771 5771 5770 5769 5769 5768 5768 5767 5767 5767 5766 5766 5766 5766 5767
5816 5815 5814 5812 5810 5808 5806 5803 5800 5797 5794 5791 5788 5785 5783 5782 5780 5776 5773 5771 5770 5768 5766 5765 5764 5763 5762 5761 5760 5759 5759 5759 5758 5758 5757 5757 5757 5757 5757 5756 5756 5757 5757
5808 5806 5804 5803 5800 5798 5796 5793 5790 5787 5784 5781 5777 5773 5771 5770 5768 5765 5761 5759 5757 5755 5754 5752 5751 5750 5749 5749 5748 5747 5747 5747 5747 5746 5746 5746 5746 5746 5746 5746 5746 5746 5746
5799 5797 5795 5793 5790 5788 5785 5782 5779 5776 5772 5769 5766 5762 5758 5756 5753 5751 5749 5746 5743 5741 5739 5738 5737 5736 5736 5735 5735 5735 5735 5734 5734 5734 5733 5733 5733 5734 5734 5734 5734 5734 5735
5790 5788 5786 5783 5781 5778 5775 5772 5768 5765 5761 5758 5754 5750 5746 5742 5738 5734 5733 5732 5728 5726 5724 5723 5722 5721 5721 5721 5721 5721 5721 5721 5720 5720 5720 5720 5721 5721 5721 5721 5722 5722 5722
5780 5778 5776 5773 5771 5768 5765 5761 5758 5754 5750 5746 5742 5738 5733 5729 5724 5719 5716 5714 5712 5710 5707 5706 5705 5705 5705 5705 5706 5706 5706 5706 5706 5706 5706 5706 5707 5707 5708 5707 5708 5708 5709
5770 5768 5765 5763 5761 5758 5755 5751 5747 5743 5739 5735 5730 5725 5720 5715 5710 5705 5700 5697 5695 5693 5691 5690 5689 5688 5688 5689 5690 5690 5691 5691 5691 5692 5692 5692 5692 5693 5694 5694 5694 5694 5695
5760 5757 5755 5753 5750 5747 5744 5741 5737 5732 5728 5723 5718 5713 5708 5702 5696 5690 5684 5680 5677 5676 5675 5673 5672 5671 5672 5672 5673 5674 5675 5676 5677 5677 5678 5678 5678 5679 5680 5679 5679 5680 5681
5750 5748 5745 5743 5740 5737 5734 5730 5726 5722 5717 5712 5707 5701 5695 5689 5682 5675 5670 5665 5661 5658 5658 5657 5656 5655 5655 5656 5657 5659 5660 5661 5661 5662 5663 5664 5664 5665 5665 5665 5665 5665 5666
5740 5738 5736 5733 5730 5727 5723 5720 5716 5712 5707 5701 5695 5689 5683 5676 5669 5663 5657 5651 5647 5643 5641 5642 5641 5640 5640 5642 5643 5645 5645 5646 5648 5648 5649 5650 5650 5650 5650 5650 5650 5650 5650
5730 5728 5726 5723 5720 5717 5714 5710 5706 5701 5696 5690 5684 5678 5672 5665 5658 5651 5645 5639 5635 5631 5629 5628 5628 5628 5628 5629 5630 5632 5633 5634 5634 5635 5635 5636 5636 5636 5635 5635 5635 5634 5634
5721 5719 5716 5714 5711 5708 5704 5700 5696 5691 5686 5680 5674 5667 5661 5654 5648 5641 5635 5630 5626 5622 5619 5618 5617 5616 5617 5617 5619 5620 5621 5621 5622 5622 5622 5622 5622 5621 5620 5620 5619 5618 5618
5712 5710 5707 5705 5702 5699 5695 5691 5687 5682 5676 5670 5664 5658 5652 5646 5640 5634 5628 5623 5618 5615 5612 5610 5609 5608 5607 5608 5609 5610 5610 5610 5610 5610 5609 5608 5608 5606 5605 5604 5603 5602 5601
5703 5701 5698 5696 5693 5690 5686 5682 5678 5673 5668 5662 5656 5651 5644 5639 5633 5628 5622 5617 5613 5609 5606 5604 5602 5601 5600 5599 5600 5600 5600 5600 5599 5598 5596 5595 5593 5591 5590 5588 5587 5585 5583
5694 5692 5690 5687 5684 5681 5678 5674 5670 5665 5660 5654 5649 5643 5638 5632 5627 5622 5617 5612 5608 5604 5601 5598 5596 5595 5594 5593 5592 5591 5590 5589 5587 5586 5584 5582 5580 5577 5574 5572 5570 5567 5565
5685 5684 5681 5679 5676 5673 5669 5666 5662 5657 5652 5647 5642 5637 5632 5626 5621 5616 5612 5607 5603 5600 5596 5594 5591 5589 5587 5585 5584 5582 5580 5578 5576 5574 5571 5567 5565 5561 5558 5556 5553 5550 5547
5677 5676 5674 5671 5668 5665 5662 5658 5654 5650 5645 5640 5636 5631 5626 5621 5616 5611 5607 5602 5598 5594 5591 5588 5585 5583 5580 5578 5575 5573 5570 5567 5564 5561 5557 5553 5550 5546 5542 5539 5535 5532 5529
5670 5668 5666 5664 5661 5657 5654 5650 5646 5642 5638 5634 5629 5625 5620 5615 5610 5606 5601 5597 5593 5589 5586 5583 5579 5576 5573 5569 5566 5563 5559 5555 5551 5547 5543 5539 5534 5530 5526 5522 5518 5514 5511
5663 5661 5659 5656 5653 5650 5646 5643 5639 5635 5631 5627 5622 5618 5613 5609 5604 5600 5595 5591 5587 5583 5579 5575 5572 5568 5564 5560 5556 5552 5547 5543 5538 5534 5529 5524 5519 5514 5509 5505 5500 5497 5494
5655 5653 5651 5649 5646 5643 5639 5636 5632 5628 5624 5620 5616 5611 5607 5602 5597 5593 5588 5584 5580 5575 5571 5567 5563 5558 5554 5549 5544 5540 5535 5530 5524 5520 5514 5510 5504 5499 5494 5488 5484 5480 5477